Terug naar catalogus

LEMUR 2 NIMBUS2000

ActiefWeerSSO
NORAD 58899·PAYLOAD·🇺🇸 United States

Gelanceerd Jan 31, 2024 vanaf Rocket Lab Launch Complex 1

Loading…

Volgende Passages (komende 24 uur)

TLE

VersSource: Space-Track

Epoch: Sep 14, 2026, 07:44 UTC

1 58899U 24022A   26257.32280365  .00018860  00000-0  42289-3 0  9991
2 58899  97.3992 108.6264 0008824 146.2363 213.9448 15.43420046146005

Volg LEMUR 2 NIMBUS2000 in realtime met AllMySat

Download on the App Store